Edinburgh Airport, United Kingdom

3:16 PM BST on April 25, 2018 (GMT +0100)
Edinburgh Airport

Weather History for EGPH - September, 2012

Change the Weather History Date:

Sunday, September 16, 2012

  Actual Average Record
Temperature  
Mean Temperature 54 °F -  
Max Temperature 60 °F 58 °F 75 °F (1996)
Min Temperature 48 °F 45 °F 39 °F (1996)
Degree Days  
Heating Degree Days 11    
Growing Degree Days 4 (Base 50)    
Moisture  
Dew Point 49 °F    
Average Humidity 82    
Maximum Humidity 94    
Minimum Humidity 67    
Precipitation  
Precipitation 0.00 in 0.09 in - ()
Sea Level Pressure  
Sea Level Pressure 29.63 in    
Wind  
Wind Speed 14 mph ()    
Max Wind Speed 22 mph    
Max Gust Speed -    
Visibility 6.2 miles    
Events Rain    
Averages and records for this station are not official NWS values.
T = Trace of Precipitation, MM = Missing Value Source: Averaged Metar Reports

Daily Weather History Graph

Daily Weather History Graph

Search for Another Location

Airport or City:

Astronomy

Sep. 16, 2012 Rise Set
Actual Time 6:47 AM BST 7:27 PM BST
Civil Twilight 6:10 AM BST 8:04 PM BST
Nautical Twilight 5:24 AM BST 8:49 PM BST
Astronomical Twilight 4:35 AM BST 9:38 PM BST
Moon 7:25 AM BST (9/16) 7:03 PM BST (9/16)
Length of Visible Light 13h 54m
Length of Day
12h 39m
New Moon, 0% of the Moon is Illuminated
Sep 16
New Moon
Sep 22
First Quarter
Sep 30
Full
Oct 8
Last Quarter
Oct 15
New

Hourly Weather History & Observations

Time (BST) Temp. Dew Point Humidity Pressure Visibility Wind Dir Wind Speed Gust Speed Precip Events Conditions
12:20 AM 55.4 °F 50.0 °F 82% 29.74 in 6.2 mi WSW 13.8 mph - N/A   Mostly Cloudy
12:50 AM 55.4 °F 50.0 °F 82% 29.74 in 6.2 mi WSW 13.8 mph - N/A   Mostly Cloudy
1:20 AM 55.4 °F 50.0 °F 82% 29.71 in 6.2 mi WSW 15.0 mph - N/A   Mostly Cloudy
1:50 AM 55.4 °F 50.0 °F 82% 29.71 in 6.2 mi WSW 17.3 mph - N/A   Mostly Cloudy
2:20 AM 55.4 °F 50.0 °F 82% 29.71 in 6.2 mi WSW 17.3 mph - N/A   Mostly Cloudy
2:50 AM 53.6 °F 48.2 °F 82% 29.71 in 6.2 mi WSW 12.7 mph - N/A   Mostly Cloudy
3:20 AM 53.6 °F 48.2 °F 82% 29.68 in 6.2 mi WSW 11.5 mph - N/A   Mostly Cloudy
3:50 AM 53.6 °F 48.2 °F 82% 29.68 in 6.2 mi WSW 15.0 mph - N/A   Mostly Cloudy
4:20 AM 55.4 °F 48.2 °F 77% 29.68 in 6.2 mi WSW 17.3 mph - N/A   Mostly Cloudy
4:50 AM 53.6 °F 48.2 °F 82% 29.68 in 6.2 mi SW 18.4 mph - N/A   Mostly Cloudy
5:20 AM 53.6 °F 48.2 °F 82% 29.65 in 6.2 mi SW 17.3 mph - N/A   Mostly Cloudy
5:50 AM 53.6 °F 50.0 °F 88% 29.65 in 6.2 mi SW 16.1 mph - N/A   Mostly Cloudy
6:20 AM 53.6 °F 50.0 °F 88% 29.65 in 6.2 mi SW 19.6 mph - N/A   Mostly Cloudy
6:50 AM 55.4 °F 50.0 °F 82% 29.65 in 6.2 mi SW 16.1 mph - N/A   Mostly Cloudy
7:20 AM 55.4 °F 50.0 °F 82% 29.65 in 6.2 mi SW 16.1 mph - N/A   Scattered Clouds
7:50 AM 55.4 °F 50.0 °F 82% 29.62 in 6.2 mi SW 13.8 mph - N/A   Scattered Clouds
8:20 AM 55.4 °F 50.0 °F 82% 29.62 in 6.2 mi SW 12.7 mph - N/A   Mostly Cloudy
8:50 AM 55.4 °F 51.8 °F 88% 29.62 in 6.2 mi SW 13.8 mph - N/A Rain Light Rain
9:20 AM 55.4 °F 53.6 °F 94% 29.62 in 6.2 mi SW 13.8 mph - N/A   Mostly Cloudy
9:50 AM 57.2 °F 53.6 °F 88% 29.62 in 6.2 mi SW 16.1 mph - N/A   Mostly Cloudy
10:20 AM 57.2 °F 53.6 °F 88% 29.62 in 6.2 mi SW 17.3 mph - N/A   Mostly Cloudy
10:50 AM 57.2 °F 53.6 °F 88% 29.59 in 6.2 mi SW 16.1 mph - N/A Rain Light Rain
11:20 AM 59.0 °F 55.4 °F 88% 29.59 in 6.2 mi SW 17.3 mph - N/A   Mostly Cloudy
11:50 AM 59.0 °F 55.4 °F 88% 29.59 in 6.2 mi SW 21.9 mph - N/A   Scattered Clouds
12:20 PM 60.8 °F 53.6 °F 77% 29.59 in 6.2 mi SW 18.4 mph - N/A   Mostly Cloudy
12:50 PM 60.8 °F 53.6 °F 77% 29.59 in 6.2 mi WSW 20.7 mph - N/A   Scattered Clouds
1:20 PM 60.8 °F 51.8 °F 72% 29.59 in 6.2 mi SW 20.7 mph - N/A   Mostly Cloudy
1:50 PM 55.4 °F 51.8 °F 88% 29.59 in 6.2 mi West 11.5 mph - N/A Rain Light Rain Showers
2:20 PM 55.4 °F 53.6 °F 94% 29.59 in 6.2 mi WSW 9.2 mph - N/A   Mostly Cloudy
2:50 PM 55.4 °F 50.0 °F 82% 29.59 in 6.2 mi West 13.8 mph - N/A Rain Light Rain
3:20 PM 57.2 °F 51.8 °F 82% 29.59 in 6.2 mi WSW 13.8 mph - N/A   Scattered Clouds
3:50 PM 57.2 °F 51.8 °F 82% 29.59 in 6.2 mi WSW 16.1 mph - N/A   Scattered Clouds
4:20 PM 57.2 °F 48.2 °F 72% 29.59 in 6.2 mi WSW 16.1 mph - N/A   Scattered Clouds
4:50 PM 57.2 °F 48.2 °F 72% 29.59 in 6.2 mi West 15.0 mph - N/A   Scattered Clouds
5:20 PM 57.2 °F 46.4 °F 67% 29.59 in 6.2 mi West 17.3 mph - N/A   Partly Cloudy
5:50 PM 57.2 °F 46.4 °F 67% 29.59 in 6.2 mi WSW 16.1 mph - N/A   Scattered Clouds
6:20 PM 55.4 °F 44.6 °F 67% 29.59 in 6.2 mi West 10.4 mph - N/A   Scattered Clouds
6:50 PM 53.6 °F 46.4 °F 77% 29.59 in 6.2 mi West 10.4 mph - N/A   Partly Cloudy
7:20 PM 53.6 °F 44.6 °F 72% 29.59 in 6.2 mi West 9.2 mph - N/A   Partly Cloudy
7:50 PM 51.8 °F 44.6 °F 76% 29.62 in 6.2 mi West 9.2 mph - N/A   Partly Cloudy
8:20 PM 51.8 °F 44.6 °F 76% 29.62 in 6.2 mi WSW 11.5 mph - N/A   Partly Cloudy
8:50 PM 50.0 °F 44.6 °F 82% 29.62 in 6.2 mi WSW 12.7 mph - N/A   Partly Cloudy
9:20 PM 48.2 °F 44.6 °F 87% 29.62 in - WSW 10.4 mph - N/A   Clear
9:50 PM 50.0 °F 44.6 °F 82% 29.62 in - WSW 11.5 mph - N/A   Clear
10:20 PM 48.2 °F 44.6 °F 87% 29.65 in 6.2 mi WSW 12.7 mph - N/A   Partly Cloudy
10:50 PM 50.0 °F 44.6 °F 82% 29.65 in 6.2 mi WSW 15.0 mph - N/A   Partly Cloudy
11:20 PM 48.2 °F 44.6 °F 87% 29.65 in 6.2 mi WSW 15.0 mph - N/A   Partly Cloudy
11:50 PM 48.2 °F 44.6 °F 87% 29.65 in 6.2 mi WSW 12.7 mph - N/A   Partly Cloudy